Weather History for KBIH - October, 2011

Change the Weather History Date:

Wednesday, October 26, 2011

  Actual Average Record
Temperature  
Mean Temperature 48 °F 53 °F  
Max Temperature 63 °F 72 °F 88 °F (1959)
Min Temperature 33 °F 34 °F 18 °F (1997)
Degree Days  
Heating Degree Days 17 12  
Month to date heating degree days 152 198  
Since 1 July heating degree days 155 241  
Cooling Degree Days 0 0  
Month to date cooling degree days 6 7  
Year to date cooling degree days 929 1103  
Moisture  
Dew Point 4 °F    
Average Humidity 21    
Maximum Humidity 34    
Minimum Humidity 7    
Precipitation  
Precipitation 0.00 in 0.01 in 0.69 in (1991)
Month to date precipitation 0.74 0.24  
Year to date precipitation 3.06 3.80  
Snow  
Snow 0.00 in 0.00 in - ()
Month to date snowfall 0.0 0.0  
Since 1 July snowfall 0.0 0.0  
Since 1 September snowfall 0.0 0.0  
Snow Depth 0.00 in    
Sea Level Pressure  
Sea Level Pressure 30.10 in    
Wind  
Wind Speed 14 mph (North)    
Max Wind Speed 29 mph    
Max Gust Speed 37 mph    
Visibility 10 miles    
Events      
T = Trace of Precipitation, MM = Missing Value Source: NWS Daily Summary

Daily Weather History Graph

Daily Weather History Graph

Search for Another Location

Airport or City:

Trip Planner

Search our weather history database for the weather conditions in past years. The results will help you decide how hot, cold, wet, or windy it might be!

Date:

Astronomy

Oct. 26, 2011 Rise Set
Actual Time 7:11 AM PDT 6:02 PM PDT
Civil Twilight 6:45 AM PDT 6:29 PM PDT
Nautical Twilight 6:14 AM PDT 6:59 PM PDT
Astronomical Twilight 5:44 AM PDT 7:29 PM PDT
Moon 7:04 AM PDT (10/26) 5:50 PM PDT (10/26)
Length of Visible Light 11h 43m
Length of Day
10h 50m
Waning Crescent, 0% of the Moon is Illuminated
Oct 26
Waning Crescent
Oct 26
New
Nov 2
First Quarter
Nov 10
Full
Nov 18
Last Quarter

Hourly Weather History & Observations

Time (PDT) Temp. Windchill Dew Point Humidity Pressure Visibility Wind Dir Wind Speed Gust Speed Precip Events Conditions
12:56 AM 48.9 °F - 19.0 °F 31% 30.02 in 10.0 mi North 18.4 mph 26.5 mph N/A   Clear
1:56 AM 46.9 °F - 19.0 °F 33% 30.04 in 10.0 mi North 19.6 mph - N/A   Clear
2:56 AM 46.0 °F 39.3 °F 15.1 °F 29% 30.04 in 10.0 mi North 16.1 mph 28.8 mph N/A   Clear
3:56 AM 45.0 °F 36.9 °F 12.0 °F 26% 30.06 in 10.0 mi NNE 20.7 mph 27.6 mph N/A   Clear
4:56 AM 43.0 °F 35.4 °F 10.9 °F 27% 30.09 in 10.0 mi North 16.1 mph 25.3 mph N/A   Clear
5:56 AM 42.1 °F 33.3 °F 10.0 °F 27% 30.12 in 10.0 mi North 19.6 mph - N/A   Clear
6:56 AM 39.0 °F 30.3 °F 9.0 °F 29% 30.15 in 10.0 mi North 16.1 mph - N/A   Clear
7:56 AM 41.0 °F 33.5 °F 10.0 °F 28% 30.17 in 10.0 mi North 13.8 mph - N/A   Clear
8:56 AM 46.9 °F - 10.0 °F 22% 30.19 in 10.0 mi North 20.7 mph 25.3 mph N/A   Clear
9:56 AM 50.0 °F - 8.1 °F 18% 30.18 in 10.0 mi North 23.0 mph 34.5 mph N/A   Clear
10:56 AM 52.0 °F - 8.1 °F 17% 30.18 in 10.0 mi North 23.0 mph 32.2 mph N/A   Clear
11:56 AM 55.0 °F - 3.9 °F 13% 30.17 in 10.0 mi North 21.9 mph 31.1 mph N/A   Clear
12:56 PM 57.9 °F - 1.9 °F 10% 30.12 in 10.0 mi NNE 21.9 mph 32.2 mph N/A   Clear
1:56 PM 61.0 °F - 1.0 °F 9% 30.09 in 10.0 mi North 12.7 mph - N/A   Clear
2:56 PM 62.1 °F - -2.0 °F 8% 30.05 in 10.0 mi NNW 16.1 mph 21.9 mph N/A   Clear
3:56 PM 62.1 °F - -2.9 °F 7% 30.04 in 10.0 mi North 12.7 mph - N/A   Clear
4:56 PM 61.0 °F - -5.1 °F 7% 30.04 in 10.0 mi North 11.5 mph - N/A   Clear
5:56 PM 55.9 °F - -8.0 °F 7% 30.05 in 10.0 mi North 15.0 mph - N/A   Clear
6:56 PM 52.0 °F - -6.0 °F 9% 30.07 in 10.0 mi North 13.8 mph - N/A   Clear
7:56 PM 46.0 °F 44.8 °F -8.0 °F 10% 30.10 in 10.0 mi North 3.5 mph - N/A   Clear
8:56 PM 44.1 °F 40.1 °F -7.1 °F 12% 30.10 in 10.0 mi NNW 6.9 mph - N/A   Clear
9:56 PM 46.9 °F - -2.9 °F 13% 30.10 in 10.0 mi NW 5.8 mph - N/A   Clear
10:56 PM 39.9 °F 35.8 °F -0.0 °F 19% 30.12 in 10.0 mi NNW 5.8 mph - N/A   Clear
11:56 PM 39.0 °F 34.8 °F 1.0 °F 20% 30.13 in 10.0 mi WNW 5.8 mph - N/A   Clear